This demonstration page uses our WeatherBlox Daily Observations layout. Learn more.

Left ArrowRight Arrow

39.01783, -85.05884

Hourly Observations for September 2, 2021

Temp ( °F °C ) Dew Point ( °F °C ) Humidity (%) Winds ( mph kmh ) Pressure ( in mb ) Visibility ( mi km ) Precip ( " mm )
12:52 am 00:52 Clear 65 18.3 52 11.1 63 63 N 7 11 29.96 1015 10 16 0.00 0.00
1:52 am 01:52 Clear 66 18.9 53 11.7 63 63 NNE 8 13 29.96 1014 10 16 0.00 0.00
2:52 am 02:52 Clear 65 18.3 53 11.7 66 66 NE 8 13 29.96 1015 10 16 0.00 0.00
3:52 am 03:52 Clear 64 17.8 53 11.7 68 68 NE 8 13 29.98 1015 10 16 0.00 0.00
4:52 am 04:52 Clear 63 17.2 54 12.2 73 73 NNE 7 11 29.98 1015 10 16 0.00 0.00
5:52 am 05:52 Mostly Clear 60 15.6 55 12.8 84 84 N 6 9 30.01 1016 10 16 0.00 0.00
6:52 am 06:52 Mostly Clear 62 16.7 55 12.8 78 78 NNE 5 7 30.02 1017 10 16 0.00 0.00
7:52 am 07:52 Sunny 60 15.6 55 12.8 84 84 N 7 11 30.06 1018 10 16 0.00 0.00
8:52 am 08:52 Sunny 63 17.2 56 13.3 78 78 N 6 9 30.08 1019 10 16 0.00 0.00
9:52 am 09:52 Sunny 67 19.4 57 13.9 71 71 NE 9 15 30.08 1019 10 16 0.00 0.00
10:52 am 10:52 Mostly Sunny 71 21.7 56 13.3 59 59 NE 6 9 30.09 1019 10 16 0.00 0.00
11:52 am 11:52 Mostly Sunny 74 23.3 54 12.2 50 50 undefined N/A 30.09 1019 10 16 0.00 0.00
12:52 pm 12:52 Mostly Sunny 76 24.4 54 12.2 47 47 E 8 13 30.08 1019 10 16 0.00 0.00
1:52 pm 13:52 Partly Cloudy 78 25.6 53 11.7 42 42 VRB 6 9 30.07 1018 10 16 0.00 0.00
2:52 pm 14:52 Mostly Sunny 77 25 52 11.1 42 42 ENE 7 11 30.06 1018 10 16 0.00 0.00
3:52 pm 15:52 Mostly Sunny 78 25.6 51 10.6 39 39 VRB 5 7 30.05 1018 10 16 0.00 0.00
4:52 pm 16:52 Mostly Sunny 79 26.1 51 10.6 38 38 NE 12 19 30.04 1017 10 16 0.00 0.00
5:52 pm 17:52 Partly Cloudy 78 25.6 50 10 37 37 ENE 8 13 30.05 1018 10 16 0.00 0.00
6:52 pm 18:52 Mostly Cloudy 77 25 48 8.9 36 36 NNE 12 19 30.04 1017 10 16 0.00 0.00
7:52 pm 19:52 Mostly Cloudy 73 22.8 50 10 44 44 E 8 13 30.06 1018 10 16 0.00 0.00
8:52 pm 20:52 Mostly Cloudy 70 21.1 50 10 49 49 E 7 11 30.07 1018 10 16 0.00 0.00
9:52 pm 21:52 Mostly Cloudy 68 20 50 10 53 53 E 6 9 30.08 1019 10 16 0.00 0.00
10:52 pm 22:52 Mostly Clear 67 19.4 52 11.1 59 59 Calm 30.09 1019 10 16 0.00 0.00
11:52 pm 23:52 Partly Cloudy 67 19.4 52 11.1 59 59 E 5 7 30.08 1019 10 16 0.00 0.00

Powered by AerisWeather